Regional Weather Roundup
Issued by NWS

Home | Current Version | Previous Version | Text Only | Print | Product List | Glossary Off
Versions: 1 2 3 4 5 6 7 8 9 10 11 12 13 14 15 16 17 18 19 20 21 22 23 24 25 26 27 28 29 30 31 32 33 34 35 36 37 38 39 40 41 42 43 44 45 46 47 48 49 50

000
ASUS45 KTFX 231719
RWRMT
MONTANA HOURLY WEATHER ROUNDUP
NATIONAL WEATHER SERVICE GREAT FALLS MT
1119 AM MDT TUE SEP 23 2014

NOTE: "FAIR" INDICATES FEW OR NO CLOUDS BELOW 12000 FEET WITH NO
SIGNIFICANT WEATHER AND/OR OBSTRUCTIONS TO VISIBILITY.

* THESE STATIONS ARE NOT UNDER NWS QUALITY CONTROL. THEY DO NOT
   REPORT WEATHER SUCH AS PRECIPITATION OR FOG.

MTZ001>007-043-231800-
WEST OF THE DIVIDE
CITY           SKY/WX    TMP DP  RH WIND       PRES   REMARKS
KALISPELL      PTCLDY    64  54  70 NE5       30.02F
MISSOULA       PTSUNNY   64  45  50 E6        30.06S
BUTTE          SUNNY     61  45  56 CALM      30.17F
MULLAN PASS    CLOUDY    55  48  77 VRB7      30.12S
* ESSEX        N/A       56  48  75 E1         N/A
* LINCOLN      N/A       54  40  59 W3         N/A
* POLSON       N/A       67  50  55 N2         N/A
* RONAN APT    PTCLDY    70  50  49 N/A        N/A
* SEELEY LAKE  N/A       62  42  48 E2         N/A
* THOMP F APT  PTSUNNY   57  51  80 NE3        N/A
$$

MTZ008-052>055-231800-
SOUTHWEST MONTANA
CITY           SKY/WX    TMP DP  RH WIND       PRES   REMARKS
BOZEMAN        SUNNY     64  48  56 VRB3      30.13F
DILLON         PTCLDY    63  48  58 VRB7      30.16F
W YELLOWSTONE  CLOUDY    55  48  77 SW10G16   30.29S
* THREE FORKS  SUNNY     63  41  45 N/A        N/A
* BOULDER HILL N/A       63  44  50 SW6        N/A
* MONIDA PASS  N/A       52  52 100 SE13G18    N/A
* RAYNOLDS PAS N/A       56  36  47 SE16       N/A
* WHITEHALL    N/A       64  51  63 SW5        N/A
* WISE RIVER   N/A       46  45  96 W7         N/A
$$

MTZ009>010-012-014-046-048-049-054-231800-
EAST SLOPES AND CENTRAL MONTANA
CITY           SKY/WX    TMP DP  RH WIND       PRES   REMARKS
CUT BANK       CLOUDY    68  48  49 W16G22    30.01R
GREAT FALLS    PTCLDY    73  48  41 SW16      30.01S
HELENA         SUNNY     64  48  56 NE3       30.08F
MALMSTROM AFB  PTCLDY    72  48  43 SW16      30.03S
* CONRAD       PTSUNNY   72  52  49 W11G17     N/A
* EAST GLACIER N/A       61  46  58 W11G18     N/A
* MONARCH      N/A       66  44  45 SW7        N/A
* PENDROY      N/A       66  51  59 N6         N/A
* ROGERS PASS  N/A       62  41  46 SE9G15     N/A
* SAINT MARY   N/A       59  45  60 SW3G12     N/A
* SWEET GRASS  N/A       69  43  39 W19G27     N/A
* WHITE SULPH  N/A       68  51  55 SW4        N/A
$$

MTZ011-013-016-021-035-040-045-047-050-051-231800-
NORTH CENTRAL MONTANA
CITY           SKY/WX    TMP DP  RH WIND       PRES   REMARKS
HAVRE          PTCLDY    73  48  41 SW21      29.92S
LEWISTOWN      SUNNY     73  45  37 W6        30.03S
* CHINOOK      SUNNY     75  48  39 W14       29.90F
* FORT BENTON  PTCLDY    73  48  41 SW10      29.98S
* CHESTER      N/A       72  45  38 W13G19     N/A
* DENTON       N/A       78  51  39 E1         N/A
* GEYSER       N/A       73  48  41 W11G17     N/A
* JUDITH GAP   N/A       72  48  43 E1         N/A
* LOMA         N/A       72  49  44 SW17G23    N/A
$$

MTZ017>020-022>027-061-062-231800-
NORTHEAST MONTANA
CITY           SKY/WX    TMP DP  RH WIND       PRES   REMARKS
GLASGOW        SUNNY     66  52  61 W5        29.87S
GLENDIVE       SUNNY     70  55  59 S6        29.89S
JORDAN         SUNNY     75  55  50 W5        29.89S
SIDNEY         SUNNY    N/A N/A N/A CALM      29.87F
WOLF POINT     SUNNY     66  52  61 SW7       29.87S
* BEAVER HILL  N/A       71  53  53 SW6        N/A
* CIRCLE       N/A       69  54  59 W1G6       N/A
* LINDSAY DVD  N/A       72  52  49 W6         N/A
* NAVAJO       N/A       74  55  52 SE6        N/A
* SACO         N/A       65  53  65 W5         N/A
$$

MTZ028>042-056>058-231800-
SOUTHCENTRAL AND SOUTHEAST MONTANA
CITY           SKY/WX    TMP DP  RH WIND       PRES   REMARKS
BAKER          PTCLDY    73  54  51 W10       29.90S
BILLINGS       SUNNY     73  48  41 SW10      30.01R
LIVINGSTON     SUNNY     72  46  40 SW22G29   30.09S
MILES CITY     SUNNY     70  52  53 VRB6      29.91S
* LAUREL APT   SUNNY     75  46  36 SW11G16    N/A
* ROUNDUP APT  SUNNY     73  48  41 S5         N/A
* ALZADA       N/A       73  54  51 SW8G14     N/A
* HYSHAM       N/A       70  49  47 W6         N/A
* LAME DEER    N/A       68  50  53 W11        N/A
* REED POINT   N/A       74  48  40 W12G18     N/A
* ROSCOE HILL  N/A       72  38  29 VRB4       N/A
$$

REGIONAL REPORTS...DAKOTAS
CITY           SKY/WX    TMP DP  RH WIND       PRES   REMARKS
WILLISTON      SUNNY     68  54  61 S5        29.86F
DICKINSON      SUNNY     72  57  59 S12       29.87F
BEACH          N/A       73  55  53 W6        29.89S
CROSBY         SUNNY     72  55  55 S7        29.86S
TIOGA          SUNNY     72  57  59 S10       29.90S
WATFORD CITY   SUNNY     73  54  51 SE6       29.84S
BISMARCK       PTCLDY    70  57  64 S13       29.93F
GRAND FORKS    SUNNY     70  55  59 S20G25    30.01F
FARGO          SUNNY     72  54  53 S13       30.04F
BUFFALO SD     PTCLDY    77  54  45 W13G20    29.84F
RAPID CITY     CLOUDY    68  57  68 CALM      29.95R
$$

REGIONAL REPORTS...WYOMING/IDAHO/WASHINGTON
CITY           SKY/WX    TMP DP  RH WIND       PRES   REMARKS
GILLETTE       PTCLDY    72  48  43 NW16G21   30.02R
SHERIDAN       SUNNY     77  46  33 NW18      30.02R
CODY           SUNNY    N/A N/A N/A W9        30.11S
YELLOWSTONE LA PTCLDY    52  46  80 CALM      30.37R
SALMON         PTCLDY    63  50  63 N3        30.12F
MULLAN PASS    CLOUDY    55  48  77 VRB7      30.12S
SAND POINT     PTCLDY    68  54  61 NE3       29.96F
SPOKANE        LGT RAIN  64  55  73 N6        29.95S
$$

REGIONAL REPORTS...ALBERTA
CITY           SKY/WX    TMP DP  RH WIND       PRES   REMARKS
CALGARY        LGT RAIN  57  50  78 W2        30.00R
LETHBRIDGE     LGT RAIN  61  52  72 NW22G32   29.99R
MEDICINE HAT   PTSUNNY   68  50  53 SW5       29.88S
EDMONTON       PTSUNNY   61  50  67 NW7       29.91S
WATERTON GATE  N/A       68  46  45 W10        N/A
CARDSTON       N/A       64  52  65 W7         N/A
MILK RIVER     N/A       66  48  52 W18G24     N/A
$$

REGIONAL REPORTS...SASKATCHEWAN
CITY           SKY/WX    TMP DP  RH WIND       PRES   REMARKS
SWIFT CURRENT  SUNNY     72  46  40 W12       29.83S
MOOSE JAW      SUNNY     72  54  53 SW8       29.80F
REGINA         SUNNY     68  55  63 SE5       29.81F
VAL MARIE      N/A       70  54  57 SW3        N/A
ASSINIBOIA     N/A       73  48  41 W6         N/A
CORONACH       N/A       75  55  50 E3         N/A

$$




USA.gov is the U.S. government's official web portal to all federal, state and local government web resources and services.